User: anonymous
Location: Unspecified
(0.0000°N, 0.0000°E)
Time: 17:55:12
(UTC+00:00)
Language:

GSAT 7 - Orbit

View from above orbital plane
View from above orbital plane
View from above satellite
View from above satellite

Ground track
Ground track

The orbit data is extracted from the following two-line orbital elements,

1 39234U 13044B   14204.10360069 -.00000095  00000-0  00000+0 0  2749
2 39234 000.0917 098.3936 0006099 167.7287 145.9224 01.00271945  3324
Epoch (UTC): 23 July 2014 02:29:11
Eccentricity: 0.0006099
inclination: 0.0917°
perigee height: 35760 km
apogee height: 35812 km
right ascension of ascending node: 98.3936°
argument of perigee: 167.7287°
revolutions per day: 1.00271945
mean anomaly at epoch: 145.9224°
orbit number at epoch: 332

The dashed part of the orbit path shows where the satellite is in the earth's shadow,  

DLR